Tacoma Narrows, WA
on Monday, January 21, 2013

Monday
Previous Day Next Day
Daily Summary
 ActualAverageRecord
Temperature
Mean Temperature °F °F  
Max Temperature 37°F 45°F 53°F (2005)
Min Temperature 33°F 37°F -14°F (2009)
Degree Days
Heating Degree Days 30    
Moisture
Dew Point 33°F   
Average Humidity 93    
Maximum Humidity 100    
Minimum Humidity 87    
Precipitation
Precipitation 0.00 in in in ()
Wind
Wind Speed 1 mph   
Max Wind Speed 5 mph   
Max Gust Speed mph   
Visibility 2 miles   
Events Fog   
Averages and records for this station are not official NWS values.
Key: T is trace of precipitation, MM is missing value
Source: NWS Daily Summary
Seasonal Weather Averages
Time(PST)TemperatureDew PointHumidity Pressure Visibility Wind DirectionWind SpeedGust SpeedPrecipitationEvents Conditions
12:20 AM 37.4°F 35.6°F 93% 30.26 in 0.2 miles Calm Calm - N/A Fog Fog
12:53 AM 37.0°F 35.1°F 93% 30.27 in 0.2 miles Calm Calm - N/A Fog Fog
1:53 AM 37.0°F 35.1°F 93% 30.28 in 0.5 miles Calm Calm - N/A Fog Fog
2:53 AM 37.0°F 35.1°F 93% 30.28 in 0.5 miles Calm Calm - N/A Fog Fog
3:45 AM 37.4°F 35.6°F 93% 30.26 in 1.0 miles NNW 3.5 mph - N/A   Mist
3:53 AM 37.0°F 35.1°F 93% 30.27 in 1.0 miles NNW 3.5 mph - N/A   Mist
4:02 AM 37.4°F 35.6°F 93% 30.25 in 0.8 miles Calm Calm - N/A   Mist
4:14 AM 37.4°F 35.6°F 93% 30.25 in 1.5 miles Calm Calm - N/A   Overcast
4:26 AM 35.6°F 33.8°F 93% 30.25 in 3.0 miles Calm Calm - N/A   Overcast
4:41 AM 35.6°F 33.8°F 93% 30.24 in 1.8 miles Calm Calm - N/A   Overcast
4:53 AM 36.0°F 34.0°F 93% 30.26 in 2.5 miles Calm Calm - N/A   Overcast
5:10 AM 35.6°F 33.8°F 93% 30.24 in 5.0 miles Calm Calm - N/A   Overcast
5:29 AM 35.6°F 35.6°F 100% 30.23 in 1.8 miles Calm Calm - N/A   Overcast
5:53 AM 36.0°F 35.1°F 97% 30.23 in 0.8 miles Calm Calm - N/A   Mist
6:26 AM 35.6°F 35.6°F 100% 30.21 in 1.2 miles North 3.5 mph - N/A   Overcast
6:53 AM 36.0°F 34.0°F 93% 30.22 in 1.2 miles NNE 4.6 mph - N/A   Overcast
7:45 AM 35.6°F 33.8°F 93% 30.20 in 0.8 miles NNW 3.5 mph - N/A   Mist
7:53 AM 35.1°F 34.0°F 96% 30.21 in 0.8 miles Calm Calm - N/A   Mist
8:53 AM 36.0°F 34.0°F 93% 30.23 in 0.8 miles South 3.5 mph - N/A   Mist
9:51 AM 35.6°F 33.8°F 93% 30.22 in 0.2 miles Calm Calm - N/A Fog Fog
9:53 AM 36.0°F 34.0°F 93% 30.24 in 0.2 miles Variable 3.5 mph - N/A Fog Fog
10:53 AM 36.0°F 34.0°F 93% 30.24 in 0.2 miles North 3.5 mph - N/A Fog Fog
11:00 AM 35.6°F 33.8°F 93% 30.23 in 0.8 miles Calm Calm - N/A   Overcast
11:53 AM 36.0°F 33.1°F 89% 30.22 in 1.0 miles Calm Calm - N/A   Overcast
12:53 PM 36.0°F 33.1°F 89% 30.21 in 1.0 miles North 3.5 mph - N/A   Overcast
1:00 PM 35.6°F 33.8°F 93% 30.20 in 3.0 miles Calm Calm - N/A   Overcast
1:53 PM 36.0°F 33.1°F 89% 30.19 in 3.0 miles NNE 3.5 mph - N/A   Overcast
2:53 PM 36.0°F 33.1°F 89% 30.17 in 4.0 miles NE 4.6 mph - N/A   Overcast
3:53 PM 36.0°F 33.1°F 89% 30.17 in 4.0 miles Calm Calm - N/A   Overcast
4:53 PM 36.0°F 33.1°F 89% 30.17 in 5.0 miles Calm Calm - N/A   Overcast
5:53 PM 35.1°F 33.1°F 92% 30.16 in 4.0 miles ESE 3.5 mph - N/A   Overcast
6:30 PM 33.8°F 32.0°F 93% 30.15 in 2.5 miles Calm Calm - N/A   Overcast
6:53 PM 34.0°F 32.0°F 92% 30.17 in 1.8 miles Calm Calm - N/A   Overcast
7:18 PM 33.8°F 32.0°F 93% 30.15 in 0.5 miles Calm Calm - N/A Fog Fog
7:53 PM 34.0°F 32.0°F 92% 30.17 in 0.5 miles South 3.5 mph - N/A Fog Fog
8:00 PM 33.8°F 32.0°F 93% 30.15 in 1.0 miles SSE 3.5 mph - N/A   Mist
8:07 PM 33.8°F 33.8°F 100% 30.15 in 0.5 miles Calm Calm - N/A Fog Fog
8:25 PM 33.8°F 33.8°F 100% 30.15 in 1.2 miles Calm Calm - N/A   Overcast
8:41 PM 33.8°F 32.0°F 93% 30.14 in 0.2 miles East 3.5 mph - N/A Fog Fog
8:50 PM 33.8°F 32.0°F 93% 30.14 in 0.2 miles Calm Calm - N/A Fog Fog
8:53 PM 33.1°F 32.0°F 96% 30.16 in 0.2 miles Calm Calm - N/A Fog Fog
9:53 PM 33.1°F 32.0°F 96% 30.16 in 0.5 miles Calm Calm - N/A Fog Fog
10:07 PM 33.8°F 32.0°F 93% 30.15 in 0.5 miles Calm Calm - N/A Fog Fog
10:50 PM 33.8°F 30.2°F 87% 30.14 in 2.0 miles Calm Calm - N/A   Overcast
10:53 PM 33.1°F 32.0°F 96% 30.16 in 2.5 miles Calm Calm - N/A   Overcast
11:02 PM 33.8°F 32.0°F 93% 30.14 in 3.0 miles Calm Calm - N/A   Overcast
11:20 PM 33.8°F 32.0°F 93% 30.14 in 2.5 miles Calm Calm - N/A   Overcast
11:32 PM 33.8°F 32.0°F 93% 30.14 in 3.0 miles Calm Calm - N/A   Overcast
11:48 PM 33.8°F 32.0°F 93% 30.14 in 1.8 miles Calm Calm - N/A   Overcast
11:53 PM 33.1°F 32.0°F 96% 30.15 in 1.8 miles Calm Calm - N/A   Overcast
Moon Phase
Jan. 21 Jan. 26 Feb. 03 Feb. 10 Feb. 17
Sunrise:07:47 AM (PST) Moon Rise:12:38 PM (PST)
Sunset:04:56 PM (PST) Moon Set:03:21 AM (PST)

Copyright © 2014 The Weather Underground, Inc.